Regional Weather Roundup
Issued by NWS Charleston, SC

Current Version | Previous Version | Text Only | Print | Product List | Glossary Off
Versions: 1 2 3 4 5 6 7 8 9 10 11 12 13 14 15 16 17 18 19 20 21 22 23 24 25 26 27 28 29 30 31 32 33 34 35 36 37 38 39 40 41 42 43 44 45 46 47 48 49 50

000
ASUS42 KCHS 060227
RWRCHS

REGIONAL WEATHER ROUNDUP
NATIONAL WEATHER SERVICE CHARLESTON SC
1000 PM EDT TUE MAY 05 2015

NOTE: "FAIR" INDICATES FEW OR NO CLOUDS BELOW 12,000 FEET WITH NO
SIGNIFICANT WEATHER AND/OR OBSTRUCTIONS TO VISIBILITY.

NOT ALL STATIONS ARE QUALITY CONTROLLED BY THE NATIONAL
WEATHER SERVICE. USE DATA WITH CAUTION...ESPECIALLY
DEWPOINT OBSERVATIONS.

SCZ027-030-031-034>040-042>050-060300-
...SOUTHEAST SOUTH CAROLINA...

CITY           SKY/WX    TMP DP  RH WIND       PRES   REMARKS
N CHARLESTON   MOCLDY    67  59  75 E6        30.26R
WATERFRONT PRK   N/A     70 N/A N/A E9          N/A
MOUNT PLEASANT FAIR      64  61  88 MISG      30.25S
PINOPOLIS      NOT AVBL
MONCKS CORNER  FAIR      64  57  77 CALM      30.26R
SUMMERVILLE    FAIR      64  59  82 CALM      30.26S
BEAUFORT MCAS  MOCLDY    70  60  70 E6        30.25R
BEAUFORT ARPT  FAIR      70  63  78 CALM      30.24S
HILTON HEAD IS MOCLDY    72  64  78 NE8       30.25S
WALTERBORO     CLOUDY    63  57  82 E3        30.26S
ALLENDALE      FAIR      68  59  73 CALM      30.24R

...SOUTHERN MIDLANDS AND PEE DEE...

CITY           SKY/WX    TMP DP  RH WIND       PRES   REMARKS
GEORGETOWN     NOT AVBL
KINGSTREE      NOT AVBL
ORANGEBURG     MOCLDY    68  50  52 E3        30.25R
BARNWELL       FAIR      70  55  60 E3        30.25R
AIKEN          FAIR      68  50  52 SE3       30.28R
MANNING        FAIR      59  52  77 CALM      30.27R
COLUMBIA       PTCLDY    70  53  54 SE5       30.24R
SUMTER         MOCLDY    68  51  53 CALM      30.24S
FLORENCE       MOCLDY    67  54  63 SE7       30.27R
MYRTLE BEACH   CLEAR     68  59  73 E6        30.28
N MYRTLE BEACH PTCLDY    63  59  87 NE3       30.27R

$$

GAZ063-065-086>088-099>101-113>116-118-119-134>141-150-060300-
...SOUTHEAST GEORGIA...

CITY           SKY/WX    TMP DP  RH WIND       PRES   REMARKS
SAVANNAH ARPT  CLOUDY    68  58  70 E6        30.23S
HUNTER AAF     CLOUDY    70  63  78 E6        30.21R
FORT STEWART   CLOUDY    69  60  72 NE3       30.21R
STATESBORO       N/A     68  59  72 CALM      30.24S
SYLVANIA       MOCLDY    66  59  78 CALM      30.25R
CLAXTON        FAIR      64  61  88 CALM      30.23S

...CSRA...CENTRAL AND FAR SOUTHEAST GEORGIA...

CITY           SKY/WX    TMP DP  RH WIND       PRES   REMARKS
THOMSON        CLEAR     64  60  87 CALM      30.29R
AUGUSTA-BUSH   PTCLDY    60  54  80 S5        30.23R
AUGUSTA-DANIEL PTCLDY    73  50  44 E5        30.24R
SWAINSBORO     FAIR      68  48  49 CALM      30.24R
VIDALIA        MOCLDY    68  59  73 SE3       30.23R
EASTMAN        FAIR      69  56  63 E5        30.25R
HAZLEHURST     FAIR      71  60  68 SE5       30.22R
ALMA           MOCLDY    69  58  67 E7        30.22R
WAYCROSS       MOCLDY    71  63  78 E5        30.21S
JESUP          MOCLDY    70  63  78 NE5       30.22S
BAXLEY         FAIR      70  61  73 E3        30.22R
BRUNSWICK      CLOUDY    70  63  78 NE7       30.22R
SAINT SIMONS   CLOUDY    70  64  81 NE13G20   30.20S

$$

SCZ027-028-034-036>038-045-046-048>050-GAZ119-141-060300-
...LAKE AND SUPPLEMENTAL COASTAL OBSERVATIONS...

STATION/POSITION TIME  TEMP    WIND        PRES    WAVE   SWELL
                       AIR SEA DIR/SP/G            HT/PER HT/PER/DIR
                 (UTC) (F)     (DEG/KT/KT) (MB)    (FT/S) (FT/S/D)
UPR LAKE MARION  NOT AVBL
WINYAH BAY       0100   70      90/  7     1024.0S
LAKE MURRAY      0100   75     120/  3/  6 1023.0R
ACE BASIN NERRS  NOT AVBL
FORT PULASKI     0112   71 72   60/ 14/ 17 1024.0R
SAPELO ISLAND    0200   70      50/  9     1023.0S

$$

ANZ835-935-AMZ111-154-330-350-352-354-370-450-454-472-060300-
...C-MAN AND BUOY OBSERVATIONS...

STATION/POSITION TIME  TEMP    WIND        PRES    WAVE   SWELL
                       AIR SEA DIR/SP/G            HT/PER HT/PER/DIR
                 (UTC) (F)     (DEG/KT/KT) (MB)    (FT/S) (FT/S/D)
BUOY 41004       0150   74 74   80/ 14/ 16 1023.4R   4/ 7   2/11
BUOY 41008       0150   70 70   60/ 14/ 17 1022.8R   5/ 7   2/110/ 7
FOLLY BEACH CMAN 0200   70      60/ 11/ 13 1024.4R
CAPERS NEARSHORE 0108   71      70/ 12/ 16 1024.1F
FRIPP NEARSHORE  0100   71      60/ 12/ 16 1022.7F


STATION/POSITION TIME  TEMP    WIND        PRES    WAVE   SWELL
                       AIR SEA DIR/SP/G            HT/PER HT/PER/DIR
                 (UTC) (F)     (DEG/KT/KT) (MB)    (FT/S) (FT/S/D)
5E ST. MARYS GA  0121      71                N/A     5/ 5
FRYING PAN BUOY  0150   73 72  120/ 10/ 12 1025.6R   4/ 6   3/120/ 6
BUOY 41025       0150   71 76  160/ 14/ 16 1026.2R   3/11   2/ 70/11
CAPE LOOKOUT NC  0200   68     150/  5/  6 1025.7R
BUOY 41002       0150   70 70  100/ 17/ 21 1024.6F   6/ 7   2/ 60/11
BUOY 41010       0120   75 78   80/ 17/ 21 1018.7F
ST AUGUSTINE FL  0200   71 73   10/ 16/ 18 1021.8R


$$



USA.gov is the U.S. government's official web portal to all federal, state and local government web resources and services.